Regional Weather Roundup
Issued by NWS

Home | Current Version | Previous Version | Graphics & Text | Print | Product List | Glossary Off
Versions: 1 2 3 4 5 6 7 8 9 10 11 12 13 14 15 16 17 18 19 20 21 22 23 24 25 26 27 28 29 30 31 32 33 34 35 36 37 38 39 40 41 42 43 44 45 46 47 48 49 50

000
ASUS43 KTOP 010508
RWRKS

WEATHER ROUNDUP FOR KANSAS
NATIONAL WEATHER SERVICE GOODLAND KS
1200 AM CDT WED OCT 01 2014

NOTE:  "FAIR" INDICATES FEW OR NO CLOUDS BELOW 12,000 FEET WITH NO
SIGNIFICANT WEATHER AND/OR OBSTRUCTIONS TO VISIBILITY.

KSZ001>006-013>018-027>032-041>047-010600-
NORTHWEST KANSAS

CITY           SKY/WX    TMP DP  RH WIND       PRES   REMARKS
GOODLAND       MOCLDY    55  48  77 W7        29.80R
HAYS           CLEAR     61  55  82 CALM      29.71R
HILL CITY      FOG       64  63  96 E7        29.73R VSB 1
RUSSELL        PTCLDY    65  62  90 SE7       29.68S
$$

KSZ061>065-074>080-084>089-010600-
SOUTHWEST KANSAS

CITY           SKY/WX    TMP DP  RH WIND       PRES   REMARKS
DODGE CITY     MOCLDY    62  48  60 S6        29.74F
GARDEN CITY    PTCLDY    55  46  71 N12       29.75S
GREAT BEND     PTCLDY    64  59  82 S8        29.71R
LIBERAL        PTCLDY    57  41  54 CALM      29.77F
PRATT          CLOUDY    68  61  77 W6        29.74R
$$

KSZ066>073-081>083-090>101-010600-
SOUTHEAST KANSAS

CITY           SKY/WX    TMP DP  RH WIND       PRES   REMARKS
CHANUTE        MOCLDY    71  62  73 S15       29.79F
COFFEYVILLE    PTCLDY    70  62  76 SE12      29.79F
HUTCHINSON     CLOUDY    72  63  73 S16       29.70S
MEDICINE LODGE   N/A     78  56  46 SW13G21   29.71R
NEWTON         CLOUDY    73  59  60 S17G25    29.73S
PARSONS        PTCLDY    72  62  71 S9        29.80F
WICHITA INTL   CLOUDY    74  63  68 S18G28    29.70F
WICHITA JABRA  CLOUDY    73  63  70 S20G29    29.71F
WICHITA MCCONL CLOUDY    73  64  73 SE24G30   29.71F
WINFIELD       PTCLDY    72  64  76 SE17G24   29.74F
$$

KSZ007>012-019>026-033>040-048>060-102>105-010600-
NORTHEAST KANSAS

CITY           SKY/WX    TMP DP  RH WIND       PRES   REMARKS
CONCORDIA      MOCLDY    65  65 100 SE3       29.72R
EMPORIA        MOCLDY    71  63  75 SE15      29.76S
LAWRENCE       CLOUDY    69  62  78 SE8       29.77S
MANHATTAN      CLOUDY    71  65  81 S6        29.72S
MARYSVILLE     TSTM      64  64 100 S3        29.75S
OLATHE IND     MOCLDY    69  62  78 S10       29.80S
OLATHE EXE     CLOUDY    69  60  73 SE12      29.79S
SALINA         RAIN      68  65  90 SE6       29.73S FOG
TOPEKA BILLARD CLOUDY    75  63  66 S15       29.75F
TOPEKA FORBES  CLOUDY    73  62  68 S16       29.75F
$$



USA.gov is the U.S. government's official web portal to all federal, state and local government web resources and services.